Date String (YYYY-MM-DD hh:mm:ss) UTC,Instrument flags,absolute air pressure of the measurement (hPa),sample flow rate (lpm),inlet stack bypass flow (lpm),air temperature of the measurement (°C),ambient temperature measured by the external sensor (°C),aerosol sample conditioner tube jacket temperature (°C),OPC LED temperature (°C),internal box temperature (°C),relative humidity of the measurement (%),span deviation,mass concentration of particles derived from Lorenz-Mie calculation of OPC scattering (μg/m³),mass concentration of particles derived from Lorenz-Mie calculation of OPC scattering (μg/m³),mass concentration of particles derived from Lorenz-Mie calculation of OPC scattering (μg/m³)
DateTimeUTC,F1_M11,P_M11,Q1_M11,Q2_M11,T1_M11,T2_M11,T3_M11,T4_M11,T5_M11,U1_M11,ZSPAN_M11,X0_M11,X2_M11,X1_M11
2023-09-11 23:00:00,SystemResetWarning,0836.1,5.00,000.00,028.3,026.8,000.0,036.7,030.0,30.4,0000.5,0008.81,0005.85,0005.55
2023-09-11 23:01:00,SystemResetWarning,0836.1,5.01,000.00,028.4,027.0,000.0,036.7,030.1,30.4,0000.6,0008.90,0005.91,0005.61
2023-09-11 23:02:00,SystemResetWarning,0836.1,5.00,000.00,028.4,027.1,000.0,036.7,030.1,30.1,0000.5,0009.24,0005.95,0005.63
2023-09-11 23:03:00,SystemResetWarning,0836.0,5.00,000.00,028.4,027.3,000.0,036.7,030.2,30.0,0000.5,0009.40,0005.95,0005.65
2023-09-11 23:04:00,SystemResetWarning,0836.1,5.00,000.00,028.5,027.4,000.0,036.7,030.3,29.6,0000.2,0009.54,0005.96,0005.68
2023-09-11 23:05:00,SystemResetWarning,0836.0,4.99,000.00,028.5,027.3,000.0,036.7,030.3,28.7,0000.3,0009.65,0006.01,0005.71
2023-09-11 23:06:00,SystemResetWarning,0835.9,5.00,000.00,028.5,025.8,000.0,036.6,030.0,28.4,0000.1,0010.00,0006.01,0005.71
2023-09-11 23:07:00,SystemResetWarning,0836.0,5.01,000.00,028.5,024.9,000.0,036.6,029.9,28.3,0000.1,0010.36,0006.05,0005.72
2023-09-11 23:08:00,SystemResetWarning,0835.9,5.01,000.00,028.4,024.9,000.0,036.6,029.7,28.9,-000.2,0010.47,0006.10,0005.74
2023-09-11 23:09:00,SystemResetWarning,0835.9,5.00,000.00,028.3,025.2,000.0,036.6,029.6,28.8,0000.0,0010.53,0006.11,0005.75
2023-09-11 23:10:00,SystemResetWarning,0835.9,5.00,000.00,028.3,025.5,000.0,036.6,029.7,28.6,-000.0,0010.52,0006.09,0005.73
2023-09-11 23:11:00,SystemResetWarning,0835.9,5.00,000.00,028.3,025.9,000.0,036.6,029.8,28.8,-000.1,0010.56,0006.11,0005.74
2023-09-11 23:12:00,SystemResetWarning,0835.9,4.99,000.00,028.3,026.2,000.0,036.6,029.9,29.1,-000.1,0010.52,0006.13,0005.76
2023-09-11 23:13:00,SystemResetWarning,0835.9,5.00,000.00,028.3,026.5,000.0,036.6,030.0,28.9,0000.2,0010.46,0006.17,0005.80
2023-09-11 23:14:00,SystemResetWarning,0835.9,5.00,000.00,028.3,026.7,000.0,036.6,030.0,28.4,0000.0,0010.24,0006.24,0005.85
2023-09-11 23:15:00,SystemResetWarning,0836.0,5.00,000.00,028.4,026.9,000.0,036.6,030.1,28.3,-000.1,0010.27,0006.28,0005.86
2023-09-11 23:16:00,SystemResetWarning,0835.9,5.00,000.00,028.4,027.1,000.0,036.7,030.2,28.0,-000.2,0010.19,0006.27,0005.85
2023-09-11 23:17:00,SystemResetWarning,0835.9,4.99,000.00,028.4,027.2,000.0,036.7,030.2,27.7,-000.0,0010.07,0006.28,0005.87
2023-09-11 23:18:00,SystemResetWarning,0835.9,5.00,000.00,028.5,027.4,000.0,036.7,030.3,28.1,0000.2,0009.75,0006.30,0005.90
2023-09-11 23:19:00,SystemResetWarning,0836.0,4.99,000.00,028.5,027.1,000.0,036.7,030.2,27.8,0000.1,0009.97,0006.31,0005.92
2023-09-11 23:20:00,SystemResetWarning,0836.0,5.00,000.00,028.5,025.6,000.0,036.6,029.9,28.1,0000.0,0009.97,0006.33,0005.94
2023-09-11 23:21:00,SystemResetWarning,0835.9,5.00,000.00,028.4,024.8,000.0,036.6,029.8,28.2,0000.1,0009.94,0006.32,0005.95
2023-09-11 23:22:00,SystemResetWarning,0835.9,5.01,000.00,028.3,024.9,000.0,036.6,029.7,28.3,0000.1,0009.87,0006.30,0005.96
2023-09-11 23:23:00,SystemResetWarning,0835.9,5.00,000.00,028.3,025.2,000.0,036.6,029.6,27.9,0000.2,0009.89,0006.32,0005.96
2023-09-11 23:24:00,SystemResetWarning,0836.0,4.99,000.00,028.2,025.6,000.0,036.6,029.7,28.1,0000.1,0009.83,0006.30,0005.97
2023-09-11 23:25:00,SystemResetWarning,0836.0,4.99,000.00,028.2,026.0,000.0,036.6,029.8,27.9,-000.1,0009.67,0006.25,0005.95
2023-09-11 23:26:00,SystemResetWarning,0836.0,5.01,000.00,028.3,026.3,000.0,036.6,029.9,28.1,-000.1,0009.50,0006.22,0005.96
2023-09-11 23:27:00,SystemResetWarning,0836.0,5.01,000.00,028.3,026.5,000.0,036.6,029.9,28.4,-000.2,0009.55,0006.25,0005.98
2023-09-11 23:28:00,SystemResetWarning,0836.0,5.00,000.00,028.3,026.8,000.0,036.6,030.0,28.3,-000.4,0009.66,0006.29,0005.99
2023-09-11 23:29:00,SystemResetWarning,0836.1,5.00,000.00,028.4,027.0,000.0,036.6,030.1,28.4,-000.6,0009.56,0006.32,0006.03
2023-09-11 23:30:00,SystemResetWarning,0836.1,5.00,000.00,028.4,027.1,000.0,036.6,030.1,28.1,-000.6,0009.40,0006.39,0006.09
2023-09-11 23:31:00,SystemResetWarning,0836.1,4.99,000.00,028.4,027.3,000.0,036.7,030.2,27.9,-000.8,0009.45,0006.42,0006.12
2023-09-11 23:32:00,SystemResetWarning,0836.1,5.00,000.00,028.5,027.4,000.0,036.7,030.2,28.1,-000.8,0009.79,0006.47,0006.16
2023-09-11 23:33:00,SystemResetWarning,0836.1,5.00,000.00,028.5,027.4,000.0,036.7,030.3,28.1,-001.0,0010.03,0006.53,0006.21
2023-09-11 23:34:00,SystemResetWarning,0836.0,4.99,000.00,028.5,026.2,000.0,036.6,030.0,27.9,-001.0,0010.18,0006.57,0006.24
2023-09-11 23:35:00,SystemResetWarning,0836.0,5.01,000.00,028.5,025.0,000.0,036.6,029.8,28.2,-001.1,0010.24,0006.60,0006.25
2023-09-11 23:36:00,SystemResetWarning,0836.0,5.01,000.00,028.4,024.9,000.0,036.6,029.8,28.2,-000.9,0010.24,0006.61,0006.27
2023-09-11 23:37:00,SystemResetWarning,0835.9,4.99,000.00,028.3,025.2,000.0,036.6,029.7,28.3,-000.6,0010.37,0006.60,0006.24
2023-09-11 23:38:00,SystemResetWarning,0835.9,4.99,000.00,028.3,025.5,000.0,036.6,029.7,28.7,-000.5,0010.40,0006.59,0006.23
2023-09-11 23:39:00,SystemResetWarning,0835.9,5.00,000.00,028.3,025.9,000.0,036.6,029.8,29.0,-000.5,0010.44,0006.58,0006.22
2023-09-11 23:40:00,SystemResetWarning,0835.9,5.01,000.00,028.3,026.2,000.0,036.6,029.9,29.0,-000.4,0010.33,0006.50,0006.16
2023-09-11 23:41:00,SystemResetWarning,0835.9,5.01,000.00,028.3,026.5,000.0,036.6,029.9,29.3,-000.2,0010.22,0006.39,0006.05
2023-09-11 23:42:00,SystemResetWarning,0835.9,5.00,000.00,028.3,026.7,000.0,036.6,030.0,28.8,-000.3,0010.10,0006.29,0005.96
2023-09-11 23:43:00,SystemResetWarning,0835.9,5.00,000.00,028.4,026.9,000.0,036.6,030.0,29.2,-000.2,0009.81,0006.19,0005.86
2023-09-11 23:44:00,SystemResetWarning,0835.9,5.00,000.00,028.4,027.1,000.0,036.6,030.1,29.6,0000.0,0009.43,0006.08,0005.75
2023-09-11 23:45:00,SystemResetWarning,0835.9,4.99,000.00,028.4,027.3,000.0,036.7,030.2,29.7,0000.1,0009.11,0005.91,0005.60
2023-09-11 23:46:00,SystemResetWarning,0835.9,5.00,000.00,028.5,027.4,000.0,036.7,030.2,28.8,-000.0,0008.83,0005.73,0005.45
2023-09-11 23:47:00,SystemResetWarning,0835.9,5.00,000.00,028.5,027.3,000.0,036.7,030.3,29.1,-000.0,0008.69,0005.60,0005.32
2023-09-11 23:48:00,SystemResetWarning,0835.9,4.98,000.00,028.5,026.0,000.0,036.6,030.0,29.1,0000.1,0008.49,0005.51,0005.23
2023-09-11 23:49:00,SystemResetWarning,0835.9,5.01,000.00,028.4,025.0,000.0,036.6,029.8,29.5,0000.5,0008.28,0005.41,0005.14
2023-09-11 23:50:00,SystemResetWarning,0835.8,5.01,000.00,028.4,024.9,000.0,036.6,029.7,29.5,0000.6,0008.06,0005.29,0005.05
2023-09-11 23:51:00,SystemResetWarning,0835.8,5.00,000.00,028.3,025.2,000.0,036.6,029.6,29.7,0000.8,0007.93,0005.21,0004.98
2023-09-11 23:52:00,SystemResetWarning,0835.8,5.00,000.00,028.2,025.5,000.0,036.6,029.7,29.9,0000.8,0007.71,0005.12,0004.90
2023-09-11 23:53:00,SystemResetWarning,0835.8,5.01,000.00,028.2,025.9,000.0,036.6,029.8,29.9,0000.8,0007.61,0005.05,0004.83
2023-09-11 23:54:00,SystemResetWarning,0835.8,5.00,000.00,028.3,026.2,000.0,036.6,029.9,29.2,0000.9,0007.54,0004.99,0004.78
2023-09-11 23:55:00,SystemResetWarning,0835.9,5.00,000.00,028.3,026.5,000.0,036.6,029.9,28.1,0000.5,0007.74,0004.94,0004.73
2023-09-11 23:56:00,SystemResetWarning,0835.8,5.00,000.00,028.3,026.7,000.0,036.6,030.0,28.4,0000.2,0008.10,0004.90,0004.71
2023-09-11 23:57:00,SystemResetWarning,0835.9,5.00,000.00,028.3,026.9,000.0,036.6,030.1,28.4,0000.3,0008.10,0004.89,0004.69
2023-09-11 23:58:00,SystemResetWarning,0835.9,5.00,000.00,028.4,027.1,000.0,036.6,030.1,27.9,0000.2,0008.29,0004.87,0004.65
2023-09-11 23:59:00,SystemResetWarning,0835.9,5.00,000.00,028.4,027.2,000.0,036.6,030.2,28.1,0000.0,0008.46,0004.83,0004.61
